^^
Datos históricos de la estación: Murcia-Puente Tocinos
Diario Informe para Agosto 1, 2019 Unidades:  Métrico    Inglés   Ambas
Diario Semanal Mensual Anual Configurable
  Máximo: Mínimo: Media:
Temperatura: 33.6 °C 22.7 °C 27.2 °C
Punto de rocio: 21.5 °C 15.8 °C 18.4 °C
Humedad: 75% 38% 60%
Velocidad viento: 22.0km/h 0.0km/h 7.7km/h
Racha viento: 37.0km/h - -
Viento- - SSE
Presión: 1012.1 hPa 1007.5 hPa -
Precipitación: 0.0 mm    
Historical Graphs
 
 
Tabla de datos para Agosto 1, 2019
Hora Temperatura Punto de rocio Presión Viento Velocidad viento Racha viento Humedad Intensidad lluvia(por hora) Nubes
00:04 25.2 °C 19.6 °C 1011.7 hPa NNW 7.6 km/h 5.8 km/h 71% 0.0 mm CLR
00:09 25.2 °C 19.6 °C 1011.7 hPa North 4.7 km/h 8.4 km/h 71% 0.0 mm CLR
00:14 25.2 °C 19.6 °C 1011.7 hPa NW 4.7 km/h 5.6 km/h 71% 0.0 mm CLR
00:19 25.2 °C 19.3 °C 1011.7 hPa NNW 3.2 km/h 2.3 km/h 70% 0.0 mm CLR
00:24 25.2 °C 19.3 °C 1011.7 hPa WNW 3.2 km/h 7.6 km/h 70% 0.0 mm CLR
00:29 25.2 °C 19.1 °C 1011.7 hPa West 3.2 km/h 7.4 km/h 69% 0.0 mm CLR
00:34 25.2 °C 19.1 °C 1011.8 hPa West 3.2 km/h 3.9 km/h 69% 0.0 mm CLR
00:39 25.2 °C 19.3 °C 1011.8 hPa West 3.2 km/h   70% 0.0 mm CLR
00:44 25.2 °C 19.3 °C 1011.8 hPa West 3.2 km/h   70% 0.0 mm CLR
00:49 25.2 °C 19.3 °C 1012.1 hPa Calm     70% 0.0 mm CLR
00:54 25.1 °C 19.2 °C 1012.1 hPa Calm   7.4 km/h 70% 0.0 mm CLR
00:59 25.2 °C 19.3 °C 1012.1 hPa ESE 2.9 km/h 4.7 km/h 70% 0.0 mm CLR
01:04 25.1 °C 19.2 °C 1012.1 hPa ESE 2.9 km/h 7.4 km/h 70% 0.0 mm CLR
01:09 25.1 °C 19.2 °C 1012.1 hPa ESE 3.2 km/h   70% 0.0 mm CLR
01:14 25.2 °C 19.3 °C 1012.1 hPa ESE 3.2 km/h 3.7 km/h 70% 0.0 mm CLR
01:19 25.2 °C 19.6 °C 1011.9 hPa Calm   4.7 km/h 71% 0.0 mm CLR
01:24 25.2 °C 19.6 °C 1011.9 hPa Calm   5.6 km/h 71% 0.0 mm CLR
01:29 25.3 °C 19.7 °C 1011.9 hPa SSW 3.2 km/h 6.9 km/h 71% 0.0 mm CLR
01:34 25.3 °C 19.7 °C 1011.8 hPa SSW 3.2 km/h   71% 0.0 mm CLR
01:39 25.3 °C 19.7 °C 1011.8 hPa SSW 2.3 km/h 3.7 km/h 71% 0.0 mm CLR
01:44 25.2 °C 19.3 °C 1011.8 hPa WNW 2.3 km/h 7.4 km/h 70% 0.0 mm CLR
01:49 25.1 °C 19.2 °C 1011.6 hPa WNW 3.2 km/h 1.9 km/h 70% 0.0 mm CLR
01:54 24.9 °C 19.3 °C 1011.6 hPa WNW 3.2 km/h 3.7 km/h 71% 0.0 mm CLR
01:59 24.7 °C 19.3 °C 1011.6 hPa Calm     72% 0.0 mm CLR
02:04 24.6 °C 19.2 °C 1011.6 hPa Calm   3.7 km/h 72% 0.0 mm CLR
02:09 24.5 °C 19.1 °C 1011.6 hPa WNW 2.3 km/h 7.4 km/h 72% 0.0 mm CLR
02:14 24.4 °C 19.0 °C 1011.6 hPa WNW 2.3 km/h   72% 0.0 mm CLR
02:19 24.4 °C 19.0 °C 1011.4 hPa NW 2.3 km/h 7.4 km/h 72% 0.0 mm CLR
02:24 24.4 °C 19.0 °C 1011.4 hPa NW 2.3 km/h   72% 0.0 mm CLR
02:29 24.4 °C 19.2 °C 1011.4 hPa WNW 2.9 km/h 5.6 km/h 73% 0.0 mm CLR
02:34 24.4 °C 19.2 °C 1011.9 hPa WNW 2.9 km/h   73% 0.0 mm CLR
02:39 24.4 °C 19.2 °C 1011.9 hPa WNW 2.3 km/h   73% 0.0 mm CLR
02:44 24.4 °C 19.2 °C 1011.9 hPa WNW 2.3 km/h   73% 0.0 mm CLR
02:49 24.6 °C 19.7 °C 1011.9 hPa Calm   7.4 km/h 74% 0.0 mm CLR
02:54 24.6 °C 19.7 °C 1011.9 hPa Calm   3.7 km/h 74% 0.0 mm CLR
02:59 24.7 °C 19.8 °C 1011.9 hPa ENE 2.9 km/h   74% 0.0 mm CLR
03:04 24.7 °C 19.8 °C 1011.7 hPa ENE 2.9 km/h   74% 0.0 mm CLR
03:09 24.7 °C 19.8 °C 1011.7 hPa Calm     74% 0.0 mm CLR
03:14 24.6 °C 19.4 °C 1011.7 hPa Calm   7.4 km/h 73% 0.0 mm CLR
03:19 24.4 °C 19.4 °C 1011.9 hPa South 4.7 km/h 9.3 km/h 74% 0.0 mm CLR
03:24 24.3 °C 19.4 °C 1011.9 hPa SSW 4.7 km/h 9.5 km/h 74% 0.0 mm CLR
03:29 24.2 °C 19.1 °C 1011.9 hPa WSW 6.4 km/h 9.3 km/h 73% 0.0 mm CLR
03:34 24.3 °C 19.2 °C 1011.7 hPa West 6.4 km/h 5.8 km/h 73% 0.0 mm CLR
03:39 24.3 °C 18.9 °C 1011.7 hPa West 4.7 km/h 11.1 km/h 72% 0.0 mm CLR
03:44 24.2 °C 18.6 °C 1011.7 hPa SW 4.7 km/h 11.1 km/h 71% 0.0 mm CLR
03:49 24.2 °C 18.4 °C 1011.3 hPa ESE 5.8 km/h 5.6 km/h 70% 0.0 mm CLR
03:54 24.2 °C 18.4 °C 1011.3 hPa WNW 5.8 km/h 7.4 km/h 70% 0.0 mm CLR
03:59 24.2 °C 18.4 °C 1011.3 hPa WSW 4.7 km/h 9.3 km/h 70% 0.0 mm CLR
04:04 24.2 °C 18.2 °C 1011.2 hPa SSW 4.7 km/h 11.1 km/h 69% 0.0 mm CLR
04:09 24.2 °C 18.2 °C 1011.2 hPa West 6.4 km/h 5.8 km/h 69% 0.0 mm CLR
04:14 24.2 °C 18.2 °C 1011.2 hPa SSW 6.4 km/h 7.4 km/h 69% 0.0 mm CLR
04:19 24.3 °C 18.0 °C 1011.2 hPa WSW 5.0 km/h 7.4 km/h 68% 0.0 mm CLR
04:24 24.3 °C 17.8 °C 1011.2 hPa West 5.0 km/h 5.6 km/h 67% 0.0 mm CLR
04:29 24.3 °C 17.6 °C 1011.2 hPa WSW 5.0 km/h 12.2 km/h 66% 0.0 mm CLR
04:34 24.3 °C 17.6 °C 1011.0 hPa WSW 5.0 km/h 11.1 km/h 66% 0.0 mm CLR
04:39 24.2 °C 17.4 °C 1011.0 hPa SSW 7.6 km/h 9.3 km/h 66% 0.0 mm CLR
04:44 24.2 °C 17.7 °C 1011.0 hPa South 7.6 km/h 11.1 km/h 67% 0.0 mm CLR
04:49 24.1 °C 17.8 °C 1011.0 hPa SSW 8.7 km/h 9.5 km/h 68% 0.0 mm CLR
04:54 24.0 °C 17.7 °C 1011.0 hPa SSW 8.7 km/h 10.3 km/h 68% 0.0 mm CLR
04:59 23.9 °C 17.6 °C 1011.0 hPa West 6.4 km/h 9.3 km/h 68% 0.0 mm CLR
05:04 23.8 °C 17.8 °C 1011.0 hPa WSW 6.4 km/h 7.4 km/h 69% 0.0 mm CLR
05:09 23.8 °C 18.0 °C 1011.0 hPa West 4.7 km/h 7.4 km/h 70% 0.0 mm CLR
05:14 23.7 °C 17.4 °C 1011.0 hPa WSW 4.7 km/h 5.6 km/h 68% 0.0 mm CLR
05:19 23.6 °C 17.6 °C 1010.9 hPa West 5.0 km/h 9.3 km/h 69% 0.0 mm CLR
05:24 23.4 °C 17.4 °C 1010.9 hPa West 5.0 km/h 13.0 km/h 69% 0.0 mm CLR
05:29 23.3 °C 17.3 °C 1010.9 hPa SW 6.4 km/h 11.1 km/h 69% 0.0 mm CLR
05:34 23.3 °C 17.3 °C 1011.5 hPa SSW 6.4 km/h 9.3 km/h 69% 0.0 mm CLR
05:39 23.3 °C 17.1 °C 1011.5 hPa SW 5.0 km/h 7.4 km/h 68% 0.0 mm CLR
05:44 23.4 °C 16.9 °C 1011.5 hPa SW 5.0 km/h 11.1 km/h 67% 0.0 mm CLR
05:49 23.4 °C 16.9 °C 1011.3 hPa WSW 6.4 km/h 7.4 km/h 67% 0.0 mm CLR
05:54 23.4 °C 16.9 °C 1011.3 hPa SSW 6.4 km/h 9.3 km/h 67% 0.0 mm CLR
05:59 23.4 °C 16.7 °C 1011.3 hPa SW 5.8 km/h 11.1 km/h 66% 0.0 mm CLR
06:04 23.3 °C 16.6 °C 1011.4 hPa WSW 5.8 km/h 13.0 km/h 66% 0.0 mm CLR
06:09 23.3 °C 16.6 °C 1011.4 hPa SW 6.9 km/h 9.3 km/h 66% 0.0 mm CLR
06:14 23.3 °C 16.8 °C 1011.4 hPa SSW 6.9 km/h 9.3 km/h 67% 0.0 mm CLR
06:19 23.3 °C 16.8 °C 1011.3 hPa SW 6.4 km/h 11.1 km/h 67% 0.0 mm CLR
06:24 23.3 °C 16.8 °C 1011.3 hPa WSW 6.4 km/h 7.4 km/h 67% 0.0 mm CLR
06:29 23.3 °C 16.8 °C 1011.3 hPa WNW 5.0 km/h 7.4 km/h 67% 0.0 mm CLR
06:34 23.2 °C 16.7 °C 1011.0 hPa West 5.0 km/h 9.3 km/h 67% 0.0 mm CLR
06:39 23.1 °C 16.9 °C 1011.0 hPa WNW 4.7 km/h 7.4 km/h 68% 0.0 mm CLR
06:44 23.0 °C 16.8 °C 1011.0 hPa West 4.7 km/h 5.6 km/h 68% 0.0 mm CLR
06:49 22.9 °C 16.7 °C 1010.9 hPa WSW 3.2 km/h 5.6 km/h 68% 0.0 mm CLR
06:54 22.8 °C 16.8 °C 1010.9 hPa WSW 3.2 km/h 5.6 km/h 69% 0.0 mm CLR
06:59 22.8 °C 16.8 °C 1010.9 hPa SW 3.2 km/h 5.6 km/h 69% 0.0 mm CLR
07:04 22.8 °C 16.8 °C 1011.0 hPa SSW 3.2 km/h 7.6 km/h 69% 0.0 mm CLR
07:09 22.9 °C 16.9 °C 1011.0 hPa SSW 5.0 km/h 9.3 km/h 69% 0.0 mm CLR
07:14 23.0 °C 16.8 °C 1011.0 hPa SSE 5.0 km/h 11.1 km/h 68% 0.0 mm CLR
07:19 23.0 °C 16.8 °C 1011.3 hPa SSW 6.9 km/h 9.5 km/h 68% 0.0 mm CLR
07:24 22.9 °C 16.9 °C 1011.3 hPa SSE 6.9 km/h 14.8 km/h 69% 0.0 mm CLR
07:29 22.8 °C 17.1 °C 1011.3 hPa SSE 8.4 km/h 13.0 km/h 70% 0.0 mm CLR
07:34 22.8 °C 17.1 °C 1011.5 hPa SSW 8.4 km/h 12.2 km/h 70% 0.0 mm CLR
07:39 22.7 °C 16.9 °C 1011.5 hPa SSW 7.6 km/h 11.9 km/h 70% 0.0 mm CLR
07:44 22.8 °C 17.1 °C 1011.5 hPa SW 7.6 km/h 11.1 km/h 70% 0.0 mm CLR
07:49 22.9 °C 16.9 °C 1011.5 hPa SW 8.4 km/h 13.0 km/h 69% 0.0 mm CLR
07:54 22.9 °C 16.9 °C 1011.5 hPa WSW 8.4 km/h 10.0 km/h 69% 0.0 mm CLR
07:59 23.0 °C 17.0 °C 1011.5 hPa WSW 6.9 km/h 9.3 km/h 69% 0.0 mm CLR
08:04 23.1 °C 17.1 °C 1011.5 hPa SSW 6.9 km/h 11.1 km/h 69% 0.0 mm CLR
08:09 23.2 °C 16.9 °C 1011.5 hPa WSW 7.6 km/h 11.1 km/h 68% 0.0 mm CLR
08:14 23.4 °C 17.2 °C 1011.5 hPa WSW 7.6 km/h 11.1 km/h 68% 0.0 mm CLR
08:19 23.5 °C 17.3 °C 1011.4 hPa WSW 5.8 km/h 7.4 km/h 68% 0.0 mm CLR
08:24 23.6 °C 17.3 °C 1011.4 hPa WSW 5.8 km/h 9.3 km/h 68% 0.0 mm CLR
08:29 23.6 °C 17.1 °C 1011.4 hPa WSW 5.8 km/h 11.1 km/h 67% 0.0 mm CLR
08:34 23.7 °C 17.2 °C 1011.4 hPa WSW 5.8 km/h 7.4 km/h 67% 0.0 mm CLR
08:39 23.8 °C 17.3 °C 1011.4 hPa WSW 5.8 km/h 9.3 km/h 67% 0.0 mm CLR
08:44 23.8 °C 17.3 °C 1011.4 hPa WSW 5.8 km/h 7.4 km/h 67% 0.0 mm CLR
08:49 23.9 °C 17.4 °C 1011.1 hPa WNW 5.0 km/h 3.7 km/h 67% 0.0 mm CLR
08:54 24.1 °C 17.3 °C 1011.1 hPa SSW 5.0 km/h 8.4 km/h 66% 0.0 mm CLR
08:59 24.2 °C 17.4 °C 1011.1 hPa SW 3.9 km/h 3.7 km/h 66% 0.0 mm CLR
09:04 24.3 °C 17.3 °C 1011.3 hPa West 3.9 km/h 7.6 km/h 65% 0.0 mm CLR
09:09 24.4 °C 17.4 °C 1011.3 hPa West 4.7 km/h 11.1 km/h 65% 0.0 mm CLR
09:14 24.4 °C 17.4 °C 1011.3 hPa WSW 4.7 km/h 11.1 km/h 65% 0.0 mm CLR
09:19 24.4 °C 17.4 °C 1010.9 hPa WNW 6.4 km/h 10.0 km/h 65% 0.0 mm CLR
09:24 24.4 °C 17.4 °C 1010.9 hPa North 6.4 km/h 7.4 km/h 65% 0.0 mm CLR
09:29 24.6 °C 17.6 °C 1010.9 hPa WNW 5.0 km/h 7.6 km/h 65% 0.0 mm CLR
09:34 24.7 °C 17.7 °C 1010.9 hPa NNE 5.0 km/h 5.6 km/h 65% 0.0 mm CLR
09:39 24.8 °C 17.5 °C 1010.9 hPa SW 4.7 km/h 11.1 km/h 64% 0.0 mm CLR
09:44 24.9 °C 17.6 °C 1010.9 hPa WSW 4.7 km/h 7.4 km/h 64% 0.0 mm CLR
09:49 25.1 °C 17.6 °C 1011.2 hPa South 5.8 km/h 11.1 km/h 63% 0.0 mm CLR
09:54 25.3 °C 17.7 °C 1011.2 hPa South 5.8 km/h 11.1 km/h 63% 0.0 mm CLR
09:59 25.4 °C 17.8 °C 1011.2 hPa SSE 6.9 km/h 13.0 km/h 63% 0.0 mm CLR
10:04 25.6 °C 17.8 °C 1011.2 hPa SW 6.9 km/h 5.8 km/h 62% 0.0 mm CLR
10:09 25.8 °C 17.7 °C 1011.2 hPa WSW 6.9 km/h 11.1 km/h 61% 0.0 mm CLR
10:14 25.9 °C 17.8 °C 1011.2 hPa SSW 6.9 km/h 7.4 km/h 61% 0.0 mm CLR
10:19 26.2 °C 18.1 °C 1011.2 hPa SW 5.8 km/h 9.3 km/h 61% 0.0 mm CLR
10:24 26.2 °C 17.8 °C 1011.2 hPa SW 5.8 km/h 9.3 km/h 60% 0.0 mm CLR
10:29 26.3 °C 17.4 °C 1011.2 hPa SSW 6.9 km/h 11.1 km/h 58% 0.0 mm CLR
10:34 26.5 °C 17.3 °C 1011.1 hPa West 6.9 km/h 13.0 km/h 57% 0.0 mm CLR
10:39 26.7 °C 17.2 °C 1011.1 hPa WNW 7.6 km/h 13.0 km/h 56% 0.0 mm CLR
10:44 26.9 °C 17.4 °C 1011.1 hPa West 7.6 km/h 11.1 km/h 56% 0.0 mm CLR
10:49 27.2 °C 17.4 °C 1011.1 hPa West 5.8 km/h 8.7 km/h 55% 0.0 mm CLR
10:54 27.4 °C 17.6 °C 1011.1 hPa West 5.8 km/h 13.0 km/h 55% 0.0 mm CLR
10:59 27.4 °C 17.6 °C 1011.1 hPa WSW 8.7 km/h 9.5 km/h 55% 0.0 mm CLR
11:04 27.5 °C 17.7 °C 1011.1 hPa WSW 8.7 km/h 11.1 km/h 55% 0.0 mm CLR
11:09 27.6 °C 17.7 °C 1011.1 hPa SSW 6.4 km/h 16.4 km/h 55% 0.0 mm CLR
11:14 27.6 °C 17.7 °C 1011.1 hPa SSW 6.4 km/h 13.0 km/h 55% 0.0 mm CLR
11:19 27.7 °C 17.6 °C 1011.2 hPa South 10.3 km/h 20.4 km/h 54% 0.0 mm CLR
11:24 27.7 °C 17.6 °C 1011.2 hPa SW 10.3 km/h 18.5 km/h 54% 0.0 mm CLR
11:29 27.9 °C 17.4 °C 1011.2 hPa SSW 10.0 km/h 18.5 km/h 53% 0.0 mm CLR
11:34 28.0 °C 17.2 °C 1011.3 hPa WSW 10.0 km/h 9.3 km/h 52% 0.0 mm CLR
11:39 28.2 °C 16.8 °C 1011.3 hPa South 8.7 km/h 9.3 km/h 50% 0.0 mm CLR
11:44 28.2 °C 16.4 °C 1011.3 hPa SSW 8.7 km/h 14.8 km/h 49% 0.0 mm CLR
11:49 28.2 °C 16.4 °C 1011.3 hPa SW 8.7 km/h 7.4 km/h 49% 0.0 mm CLR
11:54 28.1 °C 16.4 °C 1011.3 hPa South 8.7 km/h 15.6 km/h 49% 0.0 mm CLR
11:59 28.1 °C 16.4 °C 1011.3 hPa SSE 9.5 km/h 13.0 km/h 49% 0.0 mm CLR
12:04 28.3 °C 16.2 °C 1011.6 hPa ESE 9.5 km/h 16.7 km/h 48% 0.0 mm CLR
12:09 28.4 °C 16.3 °C 1011.6 hPa South 9.5 km/h 16.4 km/h 48% 0.0 mm CLR
12:14 28.4 °C 16.0 °C 1011.6 hPa SE 9.5 km/h 16.7 km/h 47% 0.0 mm CLR
12:19 28.4 °C 16.0 °C 1011.3 hPa South 11.9 km/h 16.4 km/h 47% 0.0 mm CLR
12:24 28.2 °C 15.8 °C 1011.3 hPa ESE 11.9 km/h 13.0 km/h 47% 0.0 mm CLR
12:29 28.4 °C 16.0 °C 1011.3 hPa SE 10.3 km/h 9.3 km/h 47% 0.0 mm CLR
12:34 28.5 °C 15.8 °C 1011.1 hPa ESE 10.3 km/h 3.7 km/h 46% 0.0 mm CLR
12:39 28.7 °C 15.9 °C 1011.1 hPa East 5.8 km/h 9.3 km/h 46% 0.0 mm CLR
12:44 28.9 °C 15.8 °C 1011.1 hPa NNE 5.8 km/h 9.3 km/h 45% 0.0 mm CLR
12:49 29.4 °C 15.9 °C 1010.7 hPa East 4.7 km/h 11.1 km/h 44% 0.0 mm CLR
12:54 29.6 °C 16.1 °C 1010.7 hPa SE 4.7 km/h 18.3 km/h 44% 0.0 mm CLR
12:59 29.4 °C 15.9 °C 1010.7 hPa SE 10.0 km/h 18.5 km/h 44% 0.0 mm CLR
13:04 29.6 °C 16.1 °C 1010.9 hPa ESE 10.0 km/h 11.1 km/h 44% 0.0 mm CLR
13:09 29.7 °C 15.8 °C 1010.9 hPa South 10.0 km/h 13.0 km/h 43% 0.0 mm CLR
13:14 29.5 °C 15.9 °C 1010.9 hPa South 10.0 km/h 8.7 km/h 44% 0.0 mm CLR
13:19 29.8 °C 16.2 °C 1011.4 hPa SSE 7.6 km/h 4.7 km/h 44% 0.0 mm CLR
13:24 30.1 °C 16.2 °C 1011.4 hPa ESE 7.6 km/h 18.5 km/h 43% 0.0 mm CLR
13:29 30.2 °C 16.2 °C 1011.4 hPa SSW 5.8 km/h 11.1 km/h 43% 0.0 mm CLR
13:34 30.6 °C 16.2 °C 1011.1 hPa ESE 5.8 km/h 6.4 km/h 42% 0.0 mm CLR
13:39 30.9 °C 16.5 °C 1011.1 hPa ENE 5.8 km/h 10.0 km/h 42% 0.0 mm CLR
13:44 31.1 °C 16.3 °C 1011.1 hPa NE 5.8 km/h 8.7 km/h 41% 0.0 mm CLR
13:49 30.8 °C 16.0 °C 1010.7 hPa SE 7.6 km/h 25.1 km/h 41% 0.0 mm CLR
13:54 30.7 °C 16.7 °C 1010.7 hPa ESE 7.6 km/h 24.5 km/h 43% 0.0 mm CLR
13:59 30.6 °C 16.9 °C 1010.7 hPa ENE 14.0 km/h 18.5 km/h 44% 0.0 mm CLR
14:04 30.5 °C 16.9 °C 1009.8 hPa ESE 14.0 km/h 11.1 km/h 44% 0.0 mm CLR
14:09 30.3 °C 16.7 °C 1009.8 hPa East 8.7 km/h 7.4 km/h 44% 0.0 mm CLR
14:14 30.2 °C 16.6 °C 1009.8 hPa ESE 8.7 km/h 11.1 km/h 44% 0.0 mm CLR
14:19 30.2 °C 16.9 °C 1009.9 hPa NNE 7.6 km/h 11.1 km/h 45% 0.0 mm CLR
14:24 30.1 °C 16.5 °C 1009.9 hPa ENE 7.6 km/h 18.5 km/h 44% 0.0 mm CLR
14:29 30.2 °C 16.9 °C 1009.9 hPa NE 9.5 km/h 13.0 km/h 45% 0.0 mm CLR
14:34 30.2 °C 16.9 °C 1009.1 hPa NE 9.5 km/h 13.0 km/h 45% 0.0 mm CLR
14:39 29.9 °C 17.0 °C 1009.1 hPa NE 11.1 km/h 18.5 km/h 46% 0.0 mm CLR
14:44 29.9 °C 17.0 °C 1009.1 hPa NNE 11.1 km/h 9.3 km/h 46% 0.0 mm CLR
14:49 29.9 °C 17.0 °C 1009.3 hPa NE 9.5 km/h 9.3 km/h 46% 0.0 mm CLR
14:54 29.9 °C 17.0 °C 1009.3 hPa ESE 9.5 km/h 7.4 km/h 46% 0.0 mm CLR
14:59 30.2 °C 17.3 °C 1009.3 hPa NNE 5.0 km/h 9.5 km/h 46% 0.0 mm CLR
15:04 30.3 °C 17.1 °C 1009.4 hPa SE 5.0 km/h 5.8 km/h 45% 0.0 mm CLR
15:09 30.6 °C 17.3 °C 1009.4 hPa SE 5.8 km/h 16.7 km/h 45% 0.0 mm CLR
15:14 30.8 °C 17.1 °C 1009.4 hPa NE 5.8 km/h 11.1 km/h 44% 0.0 mm CLR
15:19 30.9 °C 17.2 °C 1009.4 hPa ESE 7.6 km/h 10.3 km/h 44% 0.0 mm CLR
15:24 31.3 °C 17.2 °C 1009.4 hPa ESE 7.6 km/h 14.8 km/h 43% 0.0 mm CLR
15:29 31.4 °C 16.6 °C 1009.4 hPa South 7.6 km/h 16.7 km/h 41% 0.0 mm CLR
15:34 31.4 °C 16.6 °C 1009.3 hPa SW 7.6 km/h 8.7 km/h 41% 0.0 mm CLR
15:39 31.4 °C 16.2 °C 1009.3 hPa ENE 7.6 km/h 7.4 km/h 40% 0.0 mm CLR
15:44 31.5 °C 16.7 °C 1009.3 hPa SE 7.6 km/h 9.3 km/h 41% 0.0 mm CLR
15:49 31.8 °C 16.6 °C 1009.2 hPa ESE 4.7 km/h   40% 0.0 mm CLR
15:54 32.1 °C 16.0 °C 1009.2 hPa SSW 4.7 km/h 11.1 km/h 38% 0.0 mm CLR
15:59 32.1 °C 16.0 °C 1009.2 hPa SE 4.7 km/h 14.8 km/h 38% 0.0 mm CLR
16:04 31.8 °C 16.1 °C 1009.0 hPa South 4.7 km/h 7.4 km/h 39% 0.0 mm CLR
16:09 31.8 °C 16.1 °C 1009.0 hPa SW 7.6 km/h 5.6 km/h 39% 0.0 mm CLR
16:14 32.1 °C 16.4 °C 1009.0 hPa NE 7.6 km/h 11.1 km/h 39% 0.0 mm CLR
16:19 32.1 °C 16.0 °C 1008.9 hPa East 6.4 km/h 9.3 km/h 38% 0.0 mm CLR
16:24 32.2 °C 16.5 °C 1008.9 hPa ENE 6.4 km/h 12.2 km/h 39% 0.0 mm CLR
16:29 32.3 °C 16.2 °C 1008.9 hPa NNW 6.4 km/h 13.0 km/h 38% 0.0 mm CLR
16:34 32.6 °C 16.8 °C 1008.6 hPa NNE 6.4 km/h 8.4 km/h 39% 0.0 mm CLR
16:39 32.8 °C 17.0 °C 1008.6 hPa East 5.8 km/h 7.4 km/h 39% 0.0 mm CLR
16:44 32.9 °C 16.7 °C 1008.6 hPa NNW 5.8 km/h 14.0 km/h 38% 0.0 mm CLR
16:49 32.8 °C 16.6 °C 1008.4 hPa NE 8.7 km/h 11.1 km/h 38% 0.0 mm CLR
16:54 32.9 °C 16.7 °C 1008.4 hPa NNE 8.7 km/h 7.4 km/h 38% 0.0 mm CLR
16:59 33.1 °C 16.9 °C 1008.4 hPa NE 6.9 km/h 16.7 km/h 38% 0.0 mm CLR
17:04 33.0 °C 16.8 °C 1008.2 hPa NNE 6.9 km/h 18.5 km/h 38% 0.0 mm CLR
17:09 33.1 °C 16.9 °C 1008.2 hPa NE 10.3 km/h 14.8 km/h 38% 0.0 mm CLR
17:14 33.2 °C 16.9 °C 1008.2 hPa North 10.3 km/h 7.4 km/h 38% 0.0 mm CLR
17:19 33.2 °C 16.9 °C 1008.0 hPa North 8.7 km/h 14.8 km/h 38% 0.0 mm CLR
17:24 33.3 °C 17.1 °C 1008.0 hPa NNE 8.7 km/h 14.8 km/h 38% 0.0 mm CLR
17:29 33.3 °C 17.4 °C 1008.0 hPa NNE 11.1 km/h 14.8 km/h 39% 0.0 mm CLR
17:34 33.4 °C 17.2 °C 1007.8 hPa ENE 11.1 km/h 14.8 km/h 38% 0.0 mm CLR
17:39 33.3 °C 17.4 °C 1007.8 hPa ENE 11.1 km/h 14.8 km/h 39% 0.0 mm CLR
17:44 33.4 °C 17.6 °C 1007.8 hPa NE 11.1 km/h 20.1 km/h 39% 0.0 mm CLR
17:49 33.6 °C 18.1 °C 1007.7 hPa East 11.1 km/h 20.4 km/h 40% 0.0 mm CLR
17:54 33.4 °C 18.3 °C 1007.7 hPa NE 11.1 km/h 13.7 km/h 41% 0.0 mm CLR
17:59 33.6 °C 18.6 °C 1007.7 hPa NE 10.3 km/h 20.4 km/h 41% 0.0 mm CLR
18:04 33.6 °C 19.3 °C 1007.6 hPa NE 10.3 km/h 18.5 km/h 43% 0.0 mm CLR
18:09 33.4 °C 19.5 °C 1007.6 hPa NNE 13.7 km/h 20.4 km/h 44% 0.0 mm CLR
18:14 33.2 °C 19.7 °C 1007.6 hPa NNE 13.7 km/h 25.9 km/h 45% 0.0 mm CLR
18:19 33.2 °C 20.4 °C 1007.5 hPa ENE 15.6 km/h 13.0 km/h 47% 0.0 mm CLR
18:24 33.1 °C 20.9 °C 1007.5 hPa NE 15.6 km/h 32.3 km/h 49% 0.0 mm CLR
18:29 32.8 °C 19.3 °C 1007.5 hPa SE 16.1 km/h 15.6 km/h 45% 0.0 mm CLR
18:34 33.1 °C 19.2 °C 1007.5 hPa ESE 16.1 km/h 15.6 km/h 44% 0.0 mm CLR
18:39 33.1 °C 19.6 °C 1007.5 hPa SE 10.0 km/h 20.4 km/h 45% 0.0 mm CLR
18:44 32.9 °C 19.7 °C 1007.5 hPa ESE 10.0 km/h 28.2 km/h 46% 0.0 mm CLR
18:49 32.3 °C 20.2 °C 1007.7 hPa ESE 17.2 km/h 27.8 km/h 49% 0.0 mm CLR
18:54 31.9 °C 20.5 °C 1007.7 hPa ESE 17.2 km/h 25.9 km/h 51% 0.0 mm CLR
18:59 31.3 °C 20.6 °C 1007.7 hPa ESE 19.0 km/h 29.6 km/h 53% 0.0 mm CLR
19:04 30.8 °C 20.7 °C 1007.9 hPa East 19.0 km/h 33.3 km/h 55% 0.0 mm CLR
19:09 30.6 °C 20.8 °C 1007.9 hPa SE 22.0 km/h 27.8 km/h 56% 0.0 mm CLR
19:14 30.3 °C 20.8 °C 1007.9 hPa ESE 22.0 km/h 22.2 km/h 57% 0.0 mm CLR
19:19 30.1 °C 20.9 °C 1008.1 hPa SE 19.0 km/h 37.0 km/h 58% 0.0 mm CLR
19:24 29.7 °C 21.1 °C 1008.1 hPa ESE 19.0 km/h 25.1 km/h 60% 0.0 mm CLR
19:29 29.7 °C 21.1 °C 1008.1 hPa ESE 18.3 km/h 24.1 km/h 60% 0.0 mm CLR
19:34 29.6 °C 21.0 °C 1008.4 hPa ESE 18.3 km/h 33.3 km/h 60% 0.0 mm CLR
19:39 29.4 °C 20.8 °C 1008.4 hPa East 18.0 km/h 31.5 km/h 60% 0.0 mm CLR
19:44 29.4 °C 20.8 °C 1008.4 hPa ESE 18.0 km/h 27.0 km/h 60% 0.0 mm CLR
19:49 29.2 °C 20.9 °C 1008.7 hPa ESE 19.0 km/h 19.8 km/h 61% 0.0 mm CLR
19:54 29.2 °C 20.9 °C 1008.7 hPa ESE 19.0 km/h 25.9 km/h 61% 0.0 mm CLR
19:59 29.1 °C 20.8 °C 1008.7 hPa ESE 16.1 km/h 22.2 km/h 61% 0.0 mm CLR
20:04 28.9 °C 20.9 °C 1009.0 hPa ESE 16.1 km/h 22.2 km/h 62% 0.0 mm CLR
20:09 28.7 °C 20.9 °C 1009.0 hPa ESE 16.1 km/h 20.4 km/h 63% 0.0 mm CLR
20:14 28.6 °C 20.9 °C 1009.0 hPa East 16.1 km/h 29.6 km/h 63% 0.0 mm CLR
20:19 28.3 °C 20.8 °C 1009.3 hPa ESE 17.2 km/h 31.5 km/h 64% 0.0 mm CLR
20:24 28.2 °C 21.0 °C 1009.3 hPa East 17.2 km/h 24.1 km/h 65% 0.0 mm CLR
20:29 28.0 °C 21.1 °C 1009.3 hPa NE 16.4 km/h 33.3 km/h 66% 0.0 mm CLR
20:34 27.8 °C 21.3 °C 1009.3 hPa East 16.4 km/h 25.6 km/h 68% 0.0 mm CLR
20:39 27.7 °C 21.3 °C 1009.3 hPa SE 15.6 km/h 25.9 km/h 68% 0.0 mm CLR
20:44 27.6 °C 21.4 °C 1009.3 hPa NE 15.6 km/h 18.5 km/h 69% 0.0 mm CLR
20:49 27.4 °C 21.4 °C 1009.5 hPa ESE 14.8 km/h 22.5 km/h 70% 0.0 mm CLR
20:54 27.3 °C 21.3 °C 1009.5 hPa East 14.8 km/h 14.8 km/h 70% 0.0 mm CLR
20:59 27.2 °C 21.5 °C 1009.5 hPa ENE 13.7 km/h 22.2 km/h 71% 0.0 mm CLR
21:04 27.2 °C 21.5 °C 1010.1 hPa SE 13.7 km/h 24.1 km/h 71% 0.0 mm CLR
21:09 27.0 °C 21.5 °C 1010.1 hPa ESE 13.0 km/h 18.5 km/h 72% 0.0 mm CLR
21:14 27.0 °C 21.5 °C 1010.1 hPa ESE 13.0 km/h 20.4 km/h 72% 0.0 mm CLR
21:19 26.9 °C 21.4 °C 1010.2 hPa ESE 11.9 km/h 14.8 km/h 72% 0.0 mm CLR
21:24 26.9 °C 21.4 °C 1010.2 hPa SE 11.9 km/h 13.0 km/h 72% 0.0 mm CLR
21:29 26.9 °C 21.2 °C 1010.2 hPa ESE 8.7 km/h 14.8 km/h 71% 0.0 mm CLR
21:34 26.9 °C 21.4 °C 1010.5 hPa ESE 8.7 km/h 11.1 km/h 72% 0.0 mm CLR
21:39 26.8 °C 21.3 °C 1010.5 hPa East 11.1 km/h 18.5 km/h 72% 0.0 mm CLR
21:44 26.7 °C 21.4 °C 1010.5 hPa SE 11.1 km/h 16.7 km/h 73% 0.0 mm CLR
21:49 26.6 °C 21.3 °C 1010.5 hPa East 11.1 km/h 17.2 km/h 73% 0.0 mm CLR
21:54 26.6 °C 21.3 °C 1010.5 hPa SSE 11.1 km/h 11.1 km/h 73% 0.0 mm CLR
21:59 26.6 °C 21.3 °C 1010.5 hPa East 8.7 km/h 9.3 km/h 73% 0.0 mm CLR
22:04 26.6 °C 21.3 °C 1010.9 hPa SE 8.7 km/h 5.8 km/h 73% 0.0 mm CLR
22:09 26.6 °C 21.3 °C 1010.9 hPa ESE 5.0 km/h 7.4 km/h 73% 0.0 mm CLR
22:14 26.6 °C 21.3 °C 1010.9 hPa South 5.0 km/h 3.7 km/h 73% 0.0 mm CLR
22:19 26.6 °C 21.3 °C 1011.0 hPa ESE 4.7 km/h 7.4 km/h 73% 0.0 mm CLR
22:24 26.5 °C 21.3 °C 1011.0 hPa NNE 4.7 km/h 7.4 km/h 73% 0.0 mm CLR
22:29 26.4 °C 21.4 °C 1011.0 hPa NE 5.0 km/h 11.1 km/h 74% 0.0 mm CLR
22:34 26.3 °C 21.3 °C 1011.2 hPa NE 5.0 km/h 11.1 km/h 74% 0.0 mm CLR
22:39 26.2 °C 21.4 °C 1011.2 hPa NE 7.6 km/h 11.1 km/h 75% 0.0 mm CLR
22:44 26.2 °C 21.4 °C 1011.2 hPa NE 7.6 km/h 9.3 km/h 75% 0.0 mm CLR
22:49 26.1 °C 21.3 °C 1011.5 hPa NNE 7.6 km/h 9.3 km/h 75% 0.0 mm CLR
22:54 26.1 °C 21.3 °C 1011.5 hPa NNE 7.6 km/h 9.3 km/h 75% 0.0 mm CLR
22:59 26.1 °C 21.3 °C 1011.5 hPa East 5.8 km/h 5.8 km/h 75% 0.0 mm CLR
23:04 26.1 °C 21.3 °C 1011.6 hPa NE 5.8 km/h 9.3 km/h 75% 0.0 mm CLR
23:09 26.1 °C 21.3 °C 1011.6 hPa SE 5.8 km/h 9.3 km/h 75% 0.0 mm CLR
23:14 26.1 °C 21.3 °C 1011.6 hPa ESE 5.8 km/h 11.1 km/h 75% 0.0 mm CLR
23:19 26.1 °C 21.3 °C 1011.8 hPa SE 7.6 km/h 13.0 km/h 75% 0.0 mm CLR
23:24 26.1 °C 21.3 °C 1011.8 hPa ESE 7.6 km/h 13.0 km/h 75% 0.0 mm CLR
23:29 26.2 °C 21.4 °C 1011.8 hPa SE 8.7 km/h 13.0 km/h 75% 0.0 mm CLR
23:34 26.2 °C 21.4 °C 1011.9 hPa SE 8.7 km/h 9.3 km/h 75% 0.0 mm CLR
23:39 26.2 °C 21.2 °C 1011.9 hPa ESE 8.7 km/h 11.1 km/h 74% 0.0 mm CLR
23:44 26.2 °C 21.2 °C 1011.9 hPa ESE 8.7 km/h 11.1 km/h 74% 0.0 mm CLR
23:49 26.2 °C 21.2 °C 1011.9 hPa East 6.9 km/h 9.3 km/h 74% 0.0 mm CLR
23:54 26.2 °C 21.0 °C 1011.9 hPa SE 6.9 km/h 7.4 km/h 73% 0.0 mm CLR
23:59 26.2 °C 21.0 °C 1011.9 hPa SE 5.8 km/h 7.4 km/h 73% 0.0 mm CLR
Murcia-Puente Tocinos, España
Compliments of Weather Underground - 2.75 mb

La estación de MeteoMurcia.com, publica sus datos en los siguientes proyectos:

Weather Underground PWS IMURCIAP2 Meteoclimatic www.awekas.at

W3Counter
Web Analytics